Simultaneous Nadir Overpasses (SNOs) Predictions

Prediction of SNOs between LANDSAT-8 and NOAA-19 Satellite Orbit:

Table of predicted SNOs for the next 14.0 days since TLE Epoch: 3/21/2014
Index Date (LANDSAT-8) Time (LANDSAT-8) Lat,Lon (LANDSAT-8) SZA (LANDSAT-8 ) Date (NOAA-19) Time (NOAA-19) Lat,Lon (NOAA-19) SZA (NOAA-19 ) Distance(km) Time Diff (sec)
1 03/23/2014 10:40:36 72.19, 19.43 71.02 03/23/2014 10:39:27 72.25, 17.81 71.12 55.23 69
2 03/23/2014 11:30:13 -71.69,-173.79 109.48 03/23/2014 11:30:22 -71.69,-173.88 109.48 3.08 9
3 03/25/2014 16:14:27 -71.71, 115.17 110.33 03/25/2014 16:14:20 -71.69, 115.16 110.35 2.67 7
4 03/25/2014 17:04:00 71.28, -77.89 69.24 03/25/2014 17:05:10 71.29, -76.86 69.23 36.98 70
5 03/27/2014 20:58:41 -71.71, 44.09 111.20 03/27/2014 20:58:18 -71.70, 44.17 111.20 2.68 23
6 03/27/2014 21:48:08 71.60,-148.44 68.69 03/27/2014 21:49:14 71.62,-148.42 68.70 1.89 66
7 03/30/2014 01:42:54 -71.74, -26.92 112.03 03/30/2014 01:42:16 -71.73, -26.85 112.03 2.50 38
8 03/30/2014 02:32:21 71.63, 140.54 67.86 03/30/2014 02:33:12 71.65, 140.55 67.88 2.44 51
9 04/01/2014 06:27:06 -71.80, -97.88 112.82 04/01/2014 06:26:14 -71.78, -97.91 112.84 2.99 52
10 04/01/2014 07:16:33 71.69, 69.58 67.06 04/01/2014 07:17:10 71.70, 69.50 67.07 3.13 37
11 04/03/2014 11:11:19 -71.79,-168.96 113.68 04/03/2014 11:10:11 -71.79,-168.89 113.67 2.34 68
12 04/03/2014 12:00:46 71.68, -1.50 66.20 04/03/2014 12:01:07 71.71, -1.49 66.24 3.53 21
